Temperature
19 18 18 18 17 17 17 17 17 17 17 17 17 16 16 16 16 16 16 15 15 15 15 15 15 15 15 15 15 15 15 15 16 16 16 17 17 17 17 17 17 18 17
19 18 18 18 17 17 17 17 16 16 16 16 16 16 16 16 16 16 15 15 15 15 14 15 15 15 15 15 15 15 15 15 15 15 16 16 17 17 17 18 18 18 17
20 19 19 18 18 17 17 17 16 16 15 15 15 15 15 15 15 15 15 14 14 14 14 14 14 14 14 14 14 14 14 15 15 15 16 16 17 18 18 18 18 18 18
21 20 19 19 18 18 17 17 16 15 15 15 14 14 14 14 14 14 14 14 14 14 14 14 14 14 14 14 14 14 14 14 15 15 16 16 17 17 18 18 18 18 18
21 20 20 19 19 18 17 17 16 15 15 14 14 13 13 13 13 13 13 13 13 13 14 13 13 13 13 13 14 14 14 14 14 15 15 16 16 17 17 17 18 18 18
22 21 20 19 19 18 17 17 16 15 14 14 13 13 12 12 12 12 12 13 13 13 13 13 13 13 13 13 13 13 14 14 14 14 15 15 16 16 17 17 18 18 18
22 21 20 19 19 18 17 17 16 15 14 13 13 12 12 12 12 12 12 12 12 12 13 13 13 12 12 12 12 13 13 13 13 14 14 15 15 16 17 17 18 18 18
22 21 20 20 19 18 17 16 15 14 13 13 12 12 11 11 11 11 11 11 11 11 12 12 12 12 12 12 12 12 12 12 13 13 14 14 15 15 16 17 17 18 18
22 21 20 19 18 17 16 15 15 14 13 12 12 11 11 11 11 10 10 10 10 11 11 11 11 11 11 11 11 11 11 12 12 12 13 14 14 15 15 16 17 17 17
21 20 19 18 17 16 15 15 14 13 12 12 11 11 11 10 10 10 9 9 9 10 10 10 10 10 10 10 11 11 11 11 11 12 12 13 13 14 15 15 16 16 17
20 19 18 17 16 16 15 14 13 12 12 11 11 10 10 10 9 9 9 9 9 9 9 9 9 9 10 10 10 10 11 11 11 11 12 12 13 13 14 15 15 16 16
19 19 18 17 16 15 14 13 12 12 11 11 10 10 10 9 9 9 9 9 8 8 8 8 8 9 9 9 10 10 10 10 10 11 11 11 12 12 13 14 14 15 15
19 18 17 16 15 14 13 12 12 11 11 10 10 10 9 9 9 9 8 8 8 8 8 8 8 8 8 9 9 9 10 10 10 10 10 11 11 12 12 13 13 14 15
18 17 16 15 14 13 12 12 11 11 10 10 9 9 9 9 9 8 8 8 8 8 8 8 8 8 8 8 9 9 9 10 10 10 10 10 11 11 11 12 12 13 14
18 16 15 14 13 13 12 11 11 10 10 9 9 9 9 9 8 8 8 8 8 8 8 8 7 7 8 8 8 9 9 9 9 10 10 10 10 11 11 11 12 12 13
17 16 15 14 13 12 12 11 11 10 10 9 9 9 9 8 8 8 8 8 8 8 7 7 7 7 7 8 8 8 9 9 9 9 9 10 10 10 10 11 11 12 12
16 15 14 13 13 12 11 11 10 10 9 9 9 9 8 8 8 8 8 8 8 7 7 7 7 7 7 7 7 8 8 8 8 9 9 9 10 10 10 11 11 11 11
15 14 13 13 12 12 11 11 10 9 9 9 9 8 8 8 8 8 8 7 7 7 7 7 7 7 7 7 7 7 7 8 8 9 9 9 9 10 10 10 10 11 11
15 14 13 13 12 11 11 10 10 9 9 9 9 8 8 8 8 7 7 7 7 7 7 7 7 7 7 7 7 7 7 7 8 8 8 9 9 10 10 10 10 10 10
14 13 13 12 12 11 10 9 9 9 9 8 8 8 8 8 8 8 8 8 7 7 7 7 7 7 7 7 7 7 7 7 7 8 8 8 9 9 9 10 10 10 10
14 13 12 12 11 10 10 9 9 9 8 8 8 8 8 7 8 8 8 8 7 7 7 7 7 7 7 7 7 7 7 7 7 8 8 8 9 9 9 9 9 10 10
14 13 12 11 11 10 9 9 9 8 8 8 8 8 8 8 8 8 8 8 8 8 7 7 7 7 7 7 7 7 7 7 7 7 8 8 8 9 9 9 9 9 9
13 13 12 11 11 10 9 9 8 8 8 8 8 8 8 8 8 8 8 8 8 8 7 7 7 7 7 7 7 7 6 6 7 7 7 8 8 9 9 9 9 9 9
13 12 12 11 10 10 9 9 8 8 8 7 7 7 7 8 8 8 8 8 8 8 7 7 7 7 7 6 6 6 6 6 7 7 7 8 8 8 9 9 9 9 9
13 12 11 11 10 10 9 9 8 8 8 7 7 7 7 8 8 8 8 8 8 8 7 7 7 6 6 6 6 6 6 6 7 7 7 7 8 8 8 8 9 9 9
13 12 11 11 10 10 9 8 8 8 7 7 7 7 7 8 8 8 8 8 8 8 8 7 7 7 6 6 6 6 6 6 7 7 7 7 8 8 8 9 9 9 9
Wind_Speed
8 7 6 7 7 6 6 5 6 6 5 5 6 5 5 5 3 2 3 4 5 6 5 6 5 4 4 5 5 5 6 7 7 7 8 8 10 11 10 9 9 11 13
8 7 6 5 6 5 3 3 5 5 5 5 5 5 5 5 4 2 2 2 3 4 5 5 5 5 4 5 5 5 4 5 5 5 5 5 7 9 12 9 10 11 10
8 7 5 4 3 3 1 2 2 3 4 6 6 6 6 6 5 5 3 2 3 3 3 4 4 5 4 4 4 4 5 4 5 5 5 4 4 4 7 11 10 10 8
7 5 4 3 1 0 0 1 1 2 3 5 6 8 8 8 8 6 5 6 5 4 3 3 3 3 4 5 5 4 3 4 5 5 6 5 2 1 1 5 7 9 8
5 3 2 1 1 3 3 2 2 2 3 5 7 8 8 8 8 8 10 9 8 6 5 4 2 3 3 4 4 4 4 3 5 5 5 5 5 5 3 3 4 5 6
3 2 1 1 2 4 4 4 3 5 6 6 8 8 9 8 10 11 11 10 7 6 5 4 2 3 3 3 4 4 4 4 6 6 6 4 4 4 4 4 6 6 5
1 1 3 4 4 5 5 4 4 5 6 7 8 8 9 10 11 11 9 8 7 7 7 6 3 3 4 4 4 4 4 4 5 5 5 5 6 5 5 4 5 5 5
2 3 4 4 5 6 6 6 6 6 6 7 8 8 9 9 8 9 10 10 9 9 9 8 6 6 5 6 5 4 5 4 4 5 5 5 6 6 6 4 3 3 4
6 6 7 8 8 8 7 7 7 7 6 7 8 8 8 7 9 9 10 10 8 10 10 9 9 8 7 7 6 5 6 5 5 4 5 5 5 6 7 6 4 3 4
9 10 10 10 9 8 7 7 7 7 7 8 8 10 8 8 8 9 9 9 10 10 10 10 10 10 9 8 7 7 7 7 6 5 5 5 5 6 6 6 6 4 3
10 10 10 9 9 9 9 8 8 8 8 8 7 7 8 8 9 9 9 9 9 9 10 10 10 10 10 9 8 9 8 8 8 7 6 6 6 5 5 6 5 5 4
10 10 10 10 10 10 11 10 10 9 9 8 8 8 8 9 10 11 10 10 10 10 11 10 11 12 12 10 10 11 11 10 9 9 8 7 6 7 6 5 6 6 5
10 10 10 10 10 10 11 11 12 11 11 10 9 9 10 10 10 10 10 10 10 10 11 11 11 12 12 11 11 11 11 11 10 9 9 9 8 7 6 6 6 5 5
9 10 10 9 10 10 10 11 12 12 12 12 12 11 10 10 11 11 11 11 11 11 11 11 12 12 12 13 12 12 11 11 10 10 10 10 9 9 8 7 7 6 5
10 11 11 10 10 10 10 11 11 11 11 12 13 12 11 10 11 11 11 11 12 14 12 12 12 12 12 13 13 11 13 11 11 11 11 11 12 12 9 8 7 7 6
11 12 12 12 11 11 11 11 11 11 10 11 13 12 12 12 12 11 12 12 12 12 12 12 13 13 15 14 12 10 10 9 10 10 11 11 12 13 13 12 10 9 8
12 12 12 11 10 10 10 10 11 11 12 12 13 12 13 13 13 14 14 13 13 13 12 13 13 13 13 16 15 15 11 11 10 9 9 13 13 14 11 11 12 11 10
11 11 12 12 12 11 11 10 12 13 13 13 13 13 13 14 13 13 14 13 12 12 12 13 13 12 14 16 15 15 13 11 11 10 10 10 10 11 12 11 11 10 10
9 10 12 13 12 12 11 12 13 13 14 14 14 14 14 15 14 15 14 13 12 12 12 12 12 12 12 13 13 13 10 10 11 11 11 11 11 12 13 11 10 10 9
9 10 11 12 11 11 12 13 14 14 14 14 15 15 14 15 15 15 14 12 11 12 12 12 11 11 10 10 11 12 9 9 9 9 10 13 13 13 14 11 10 10 8
10 10 11 10 10 10 11 12 14 14 14 15 15 15 15 15 15 13 11 11 11 11 11 11 10 9 8 7 9 11 7 7 8 7 7 8 13 14 15 11 8 8 8
10 11 10 10 10 10 10 13 13 14 14 15 16 15 15 15 15 13 11 11 10 10 10 9 9 6 5 5 7 10 9 6 4 4 4 5 10 14 15 10 8 8 7
10 10 11 11 10 10 10 12 13 13 15 15 16 16 17 15 13 12 11 10 8 8 8 7 7 6 3 2 5 8 8 6 3 1 2 1 7 11 11 10 10 8 5
9 10 11 12 11 11 11 11 12 13 14 15 16 15 15 15 13 10 9 8 8 7 7 7 7 5 3 2 1 4 5 5 4 3 2 4 8 8 8 9 8 6 6
9 9 10 11 12 11 11 11 11 12 14 15 15 15 14 13 12 11 8 8 6 4 5 7 7 6 4 2 3 1 1 2 3 3 3 3 4 6 6 7 8 8 7
9 9 11 12 13 12 12 11 11 12 13 14 14 13 13 12 11 11 10 7 6 5 5 5 5 4 2 1 1 2 2 2 2 1 4 5 6 7 8 8 9 9 8
Wind_Direction
113 108 102 100 94 86 76 62 47 36 5 15 349 339 341 333 316 314 53 13 345 340 321 320 323 310 298 295 287 270 270 260 249 243 248 243 227 217 216 214 216 217 221
128 129 134 121 105 97 87 83 50 27 3 5 322 306 324 308 296 347 36 10 349 338 328 336 321 315 310 298 288 278 268 268 247 230 230 237 229 217 216 207 212 216 217
142 142 133 121 118 110 88 55 48 4 0 344 322 336 325 310 322 330 318 350 326 310 308 308 312 314 309 307 301 275 264 267 273 245 225 225 229 214 204 204 206 205 209
141 148 157 150 146 209 100 85 44 11 355 337 332 328 315 314 317 318 321 321 303 283 275 278 292 308 309 310 312 314 279 259 267 275 251 253 272 257 224 205 201 196 201
155 162 177 184 307 325 344 355 33 17 352 338 320 316 313 318 315 317 310 305 292 270 254 245 248 277 295 311 314 315 304 281 271 271 277 265 252 233 228 215 201 195 195
185 181 246 285 307 316 316 330 22 14 356 335 324 316 316 314 310 301 293 292 287 284 282 268 238 261 276 295 299 300 301 287 277 275 271 271 258 242 239 222 202 194 196
212 251 279 296 307 310 323 341 2 357 343 330 322 320 316 309 295 290 299 309 312 310 308 310 297 281 272 266 266 275 278 278 279 276 280 281 277 269 255 236 221 197 183
320 305 309 328 338 340 354 353 352 338 330 320 313 308 297 296 302 317 322 310 300 295 297 301 288 275 268 271 264 264 265 261 267 272 274 281 285 286 281 265 246 214 185
343 339 351 351 351 354 357 350 342 335 327 318 307 293 295 313 315 310 300 298 301 301 305 314 305 290 273 260 257 257 259 257 251 259 266 263 269 281 286 288 275 223 205
352 357 353 347 351 349 348 344 339 332 324 315 312 315 324 312 301 302 300 296 292 291 290 287 285 283 276 261 244 247 250 244 240 239 247 257 261 265 277 283 289 280 240
353 348 345 350 349 343 340 341 335 329 322 318 317 313 307 306 304 298 294 295 297 296 293 289 285 281 276 268 254 246 244 245 243 238 233 236 246 257 264 275 279 274 264
349 344 344 348 342 338 337 332 329 324 320 320 315 310 307 305 302 302 301 299 294 291 291 287 285 281 277 269 261 252 247 240 238 233 227 226 230 238 244 255 268 267 263
349 344 346 343 339 338 332 328 325 322 321 318 315 314 310 307 303 302 299 296 293 289 288 286 282 279 277 272 266 258 250 245 240 233 226 221 217 225 230 233 246 260 260
350 347 344 339 339 331 329 325 321 320 317 318 316 309 305 303 301 300 297 294 292 289 284 281 279 277 275 271 266 261 252 244 240 237 230 222 215 214 215 225 227 232 243
345 344 339 335 331 329 326 321 319 318 318 315 311 307 304 303 300 298 297 294 292 291 288 285 282 277 273 267 259 256 256 246 238 235 232 227 216 210 205 211 215 218 221
340 335 332 331 328 325 322 322 318 318 317 312 309 307 305 303 301 301 299 296 294 292 288 284 281 276 274 273 272 262 262 258 247 241 236 234 222 212 203 201 198 200 209
333 333 333 328 323 322 324 321 320 319 316 313 309 308 307 306 305 307 305 301 299 295 289 285 280 275 270 267 263 259 254 254 247 241 240 241 229 201 197 198 197 201 205
337 336 328 323 322 326 325 324 322 320 317 313 311 312 310 308 308 306 302 300 299 296 292 287 283 277 272 262 252 248 247 248 242 235 232 234 243 220 194 192 198 203 202
340 329 323 321 323 325 328 325 321 319 316 315 316 316 314 311 308 306 303 301 299 297 293 289 283 278 273 260 248 237 243 241 240 234 230 226 232 225 195 191 195 198 200
332 325 323 323 325 328 328 323 319 318 318 319 318 316 313 310 307 303 301 301 298 295 297 294 289 284 277 261 243 225 233 236 238 232 232 227 225 215 194 192 193 197 197
329 329 329 326 326 326 325 319 318 319 321 319 316 314 312 309 303 302 303 302 299 299 299 297 294 287 279 261 237 216 228 233 236 232 225 225 210 201 197 196 198 199 189
331 333 330 327 325 327 325 319 319 323 322 319 316 315 313 311 310 307 304 303 301 301 301 303 303 294 279 259 233 211 221 246 251 243 235 220 194 189 189 193 182 171 176
332 331 328 325 324 329 328 319 321 324 322 320 317 315 313 310 307 306 305 305 304 304 308 312 313 312 305 259 218 211 217 226 244 299 327 215 182 184 188 194 177 172 191
328 329 327 325 325 328 328 322 323 325 322 320 318 314 312 311 312 310 308 307 310 312 316 319 321 324 325 322 242 204 205 205 209 229 222 169 172 190 191 181 186 199 213
324 326 325 324 324 328 325 325 328 327 323 320 318 316 313 312 313 312 310 305 309 302 300 313 319 325 332 8 8 326 228 201 181 196 190 188 179 196 201 196 193 200 211
324 325 326 325 326 326 326 329 331 329 324 319 318 317 314 314 315 316 314 295 279 259 247 259 283 311 358 49 25 45 49 45 34 201 203 212 206 206 206 205 201 201 205
Height
1514 1515 1515 1516 1516 1516 1515 1515 1514 1514 1513 1512 1511 1510 1510 1508 1507 1505 1503 1500 1499 1497 1494 1492 1489 1488 1486 1485 1484 1483 1483 1485 1486 1488 1490 1492 1494 1495 1497 1499 1501 1502 1504
1514 1515 1516 1516 1516 1516 1516 1515 1514 1513 1512 1511 1510 1509 1508 1506 1505 1503 1500 1498 1496 1494 1492 1489 1486 1484 1483 1481 1480 1479 1480 1480 1482 1484 1485 1486 1489 1489 1491 1492 1494 1496 1498
1513 1515 1516 1516 1516 1516 1516 1515 1513 1511 1510 1509 1508 1506 1504 1503 1502 1500 1498 1495 1493 1491 1489 1486 1484 1482 1480 1478 1477 1476 1476 1477 1478 1480 1481 1482 1482 1483 1484 1486 1489 1490 1493
1512 1513 1514 1515 1515 1515 1515 1513 1511 1509 1508 1506 1505 1503 1501 1499 1498 1496 1494 1492 1490 1488 1485 1483 1481 1479 1477 1476 1474 1474 1474 1474 1475 1475 1477 1479 1479 1480 1480 1482 1484 1486 1489
1510 1512 1513 1514 1514 1514 1513 1511 1509 1507 1505 1503 1502 1500 1498 1496 1493 1491 1489 1487 1485 1484 1482 1479 1478 1476 1475 1473 1472 1471 1471 1471 1472 1472 1473 1474 1475 1476 1478 1479 1481 1483 1485
1509 1510 1511 1511 1511 1511 1510 1509 1506 1504 1502 1500 1498 1496 1494 1491 1488 1486 1484 1482 1481 1480 1478 1477 1474 1473 1471 1470 1469 1468 1467 1467 1468 1468 1469 1470 1472 1472 1474 1476 1478 1480 1482
1506 1508 1508 1509 1508 1508 1507 1505 1503 1501 1499 1497 1495 1492 1490 1487 1484 1482 1480 1478 1476 1475 1474 1472 1470 1469 1468 1466 1465 1464 1464 1464 1464 1464 1465 1466 1467 1469 1471 1473 1475 1476 1478
1504 1505 1505 1506 1505 1505 1503 1502 1499 1497 1495 1493 1490 1488 1485 1482 1480 1478 1475 1473 1471 1470 1469 1467 1465 1464 1463 1462 1461 1460 1460 1459 1459 1460 1460 1462 1463 1464 1467 1469 1471 1473 1475
1502 1503 1503 1503 1503 1501 1500 1498 1496 1493 1491 1488 1486 1483 1481 1478 1475 1472 1470 1467 1466 1464 1462 1460 1459 1458 1457 1457 1456 1455 1455 1455 1455 1455 1456 1457 1458 1460 1462 1464 1468 1471 1472
1501 1501 1502 1501 1500 1499 1497 1495 1492 1490 1487 1484 1481 1479 1476 1472 1469 1466 1464 1461 1459 1457 1455 1454 1453 1452 1451 1451 1450 1450 1450 1450 1449 1450 1450 1452 1453 1454 1457 1459 1462 1465 1469
1500 1500 1500 1499 1497 1496 1494 1491 1489 1486 1483 1480 1477 1473 1470 1467 1464 1461 1458 1456 1453 1451 1449 1447 1446 1445 1444 1444 1444 1444 1444 1444 1444 1444 1445 1446 1448 1450 1452 1454 1457 1461 1464
1499 1499 1498 1496 1495 1493 1490 1488 1485 1482 1479 1475 1472 1469 1465 1462 1459 1456 1453 1450 1447 1445 1442 1440 1439 1438 1437 1437 1437 1437 1438 1438 1438 1439 1440 1440 1442 1444 1446 1449 1452 1455 1458
1497 1497 1495 1494 1492 1490 1487 1484 1481 1478 1475 1471 1468 1464 1460 1457 1454 1450 1447 1444 1441 1438 1436 1434 1432 1430 1430 1429 1429 1430 1430 1431 1432 1433 1434 1435 1436 1437 1440 1443 1446 1450 1453
1496 1495 1493 1491 1489 1487 1484 1481 1478 1474 1471 1467 1463 1459 1456 1452 1449 1445 1442 1438 1435 1432 1429 1427 1425 1423 1422 1421 1421 1422 1423 1424 1425 1426 1427 1429 1430 1432 1434 1437 1440 1444 1448
1494 1493 1491 1489 1486 1483 1480 1477 1474 1470 1467 1462 1459 1455 1451 1448 1444 1440 1436 1432 1429 1426 1423 1420 1417 1415 1414 1413 1413 1414 1415 1416 1417 1419 1420 1422 1424 1426 1428 1430 1433 1437 1441
1492 1490 1488 1486 1483 1480 1477 1473 1470 1466 1463 1458 1454 1450 1447 1443 1439 1435 1431 1426 1422 1419 1416 1412 1409 1407 1406 1406 1406 1406 1407 1408 1409 1411 1413 1416 1418 1420 1422 1424 1427 1430 1434
1490 1488 1485 1483 1480 1477 1473 1470 1466 1462 1458 1454 1450 1446 1442 1437 1433 1429 1425 1420 1416 1412 1408 1405 1402 1399 1397 1396 1396 1396 1398 1399 1401 1404 1406 1410 1412 1414 1416 1418 1421 1424 1427
1487 1485 1483 1480 1477 1473 1470 1466 1462 1458 1454 1450 1445 1441 1437 1432 1428 1423 1419 1414 1410 1406 1401 1397 1394 1390 1388 1387 1387 1387 1389 1390 1393 1396 1399 1402 1406 1408 1410 1413 1415 1418 1421
1485 1482 1480 1477 1473 1470 1466 1462 1458 1454 1450 1446 1441 1436 1432 1427 1422 1417 1413 1409 1404 1399 1395 1391 1387 1383 1380 1379 1379 1379 1381 1382 1385 1389 1392 1396 1399 1402 1405 1408 1411 1413 1416
1482 1479 1476 1473 1470 1466 1462 1458 1454 1450 1446 1441 1437 1432 1427 1422 1417 1412 1408 1403 1398 1394 1389 1385 1381 1377 1374 1372 1372 1373 1374 1376 1379 1383 1386 1390 1393 1397 1400 1404 1407 1409 1412
1479 1476 1473 1470 1467 1463 1459 1455 1451 1447 1442 1437 1432 1427 1422 1417 1412 1408 1403 1398 1393 1389 1384 1380 1376 1372 1369 1367 1367 1368 1369 1371 1374 1377 1380 1384 1388 1392 1396 1400 1403 1406 1409
1476 1473 1470 1467 1463 1459 1455 1451 1447 1443 1437 1432 1427 1422 1417 1413 1408 1403 1398 1394 1389 1385 1380 1376 1372 1368 1366 1364 1363 1364 1365 1368 1370 1373 1376 1380 1383 1387 1392 1396 1399 1403 1406
1473 1470 1467 1464 1460 1456 1452 1447 1443 1438 1433 1428 1423 1418 1413 1408 1404 1399 1395 1390 1386 1382 1378 1374 1370 1366 1363 1361 1360 1361 1363 1365 1368 1370 1373 1376 1379 1383 1388 1392 1396 1399 1403
1470 1467 1464 1460 1457 1453 1449 1444 1439 1435 1429 1424 1418 1413 1409 1404 1400 1396 1391 1387 1383 1379 1376 1372 1368 1364 1362 1360 1359 1359 1361 1363 1366 1369 1371 1373 1377 1381 1385 1389 1392 1395 1399
1467 1465 1461 1457 1454 1450 1445 1441 1436 1431 1426 1420 1415 1410 1405 1401 1396 1392 1388 1384 1381 1377 1373 1370 1366 1363 1361 1359 1358 1359 1360 1362 1365 1367 1370 1372 1375 1378 1382 1385 1388 1392 1395
1464 1462 1458 1455 1451 1446 1442 1438 1433 1428 1423 1417 1411 1407 1402 1398 1393 1389 1385 1381 1378 1374 1370 1368 1365 1362 1361 1359 1359 1359 1360 1361 1364 1366 1368 1370 1373 1376 1379 1382 1385 1388 1391